Fallon NAS, NV

2:24 PM PDT on September 26, 2017 (GMT -0700)
Fallon Naval Air Station

Weather History for KNFL - March, 2013

Change the Weather History Date:

Wednesday, March 13, 2013

  Actual Average Record
Temperature  
Mean Temperature 54 °F -  
Max Temperature 79 °F 57 °F 79 °F (2013)
Min Temperature 30 °F 28 °F 11 °F (1954)
Degree Days  
Heating Degree Days 12    
Growing Degree Days 4 (Base 50)    
Moisture  
Dew Point 18 °F    
Average Humidity 31    
Maximum Humidity 61    
Minimum Humidity 8    
Precipitation  
Precipitation 0.00 in - - ()
Sea Level Pressure  
Sea Level Pressure 30.11 in    
Wind  
Wind Speed 3 mph (SSE)    
Max Wind Speed 9 mph    
Max Gust Speed -    
Visibility 10 miles    
Events      
Averages and records for this station are not official NWS values.
T = Trace of Precipitation, MM = Missing Value Source: NWS Daily Summary

Daily Weather History Graph

Daily Weather History Graph

Search for Another Location

Airport or City:

Trip Planner

Search our weather history database for the weather conditions in past years. The results will help you decide how hot, cold, wet, or windy it might be!

Date:

Astronomy

Mar. 13, 2013 Rise Set
Actual Time 7:08 AM PDT 7:00 PM PDT
Civil Twilight 6:42 AM PDT 7:26 PM PDT
Nautical Twilight 6:10 AM PDT 7:58 PM PDT
Astronomical Twilight 5:39 AM PDT 8:29 PM PDT
Moon 7:51 AM PDT (3/13) 9:20 PM PDT (3/13)
Length of Visible Light 12h 44m
Length of Day
11h 51m
Waxing Crescent, 4% of the Moon is Illuminated
Mar 13
Waxing Crescent
Mar 19
First Quarter
Mar 27
Full
Apr 2
Last Quarter
Apr 10
New

Hourly Weather History & Observations

Time (PDT) Temp. Windchill Dew Point Humidity Pressure Visibility Wind Dir Wind Speed Gust Speed Precip Events Conditions
12:56 AM 42.1 °F 40.2 °F 18.0 °F 38% 30.11 in 10.0 mi SSE 3.5 mph - N/A   Clear
1:56 AM 39.9 °F 36.7 °F 19.9 °F 45% 30.12 in 10.0 mi SSE 4.6 mph - N/A   Clear
2:56 AM 39.0 °F - 25.0 °F 57% 30.11 in 10.0 mi Calm Calm - N/A   Clear
3:56 AM 35.1 °F 30.1 °F 23.0 °F 61% 30.11 in 10.0 mi South 5.8 mph - N/A   Clear
4:56 AM 34.0 °F - 19.9 °F 56% 30.12 in 10.0 mi Calm Calm - N/A   Clear
5:56 AM 34.0 °F - 18.0 °F 52% 30.13 in 10.0 mi Calm Calm - N/A   Clear
6:14 AM 30.2 °F - 17.6 °F 60% 30.24 in 10.0 mi Calm Calm - N/A   Scattered Clouds
6:56 AM 32.0 °F - 19.0 °F 59% 30.14 in 10.0 mi Calm Calm - N/A   Mostly Cloudy
7:56 AM 34.0 °F - 18.0 °F 52% 30.15 in 10.0 mi Calm Calm - N/A   Mostly Cloudy
8:56 AM 45.0 °F - 21.9 °F 40% 30.16 in 10.0 mi Calm Calm - N/A   Mostly Cloudy
9:56 AM 54.0 °F - 23.0 °F 30% 30.17 in 10.0 mi Calm Calm - N/A   Overcast
10:56 AM 62.1 °F - 23.0 °F 22% 30.16 in 10.0 mi Calm Calm - N/A   Overcast
11:56 AM 68.0 °F - 21.0 °F 17% 30.14 in 10.0 mi South 8.1 mph - N/A   Overcast
12:56 PM 71.1 °F - 19.0 °F 14% 30.13 in 10.0 mi Variable 6.9 mph - N/A   Overcast
1:56 PM 73.9 °F - 18.0 °F 12% 30.09 in 10.0 mi SSW 6.9 mph - N/A   Overcast
2:56 PM 75.9 °F - 10.0 °F 8% 30.06 in 10.0 mi South 9.2 mph - N/A   Overcast
3:56 PM 77.0 °F - 14.0 °F 9% 30.05 in 10.0 mi SSW 5.8 mph - N/A   Overcast
4:56 PM 77.0 °F - 12.9 °F 9% 30.04 in 10.0 mi Calm Calm - N/A   Overcast
5:56 PM 77.0 °F - 12.0 °F 8% 30.04 in 10.0 mi North 6.9 mph - N/A   Overcast
6:56 PM 71.1 °F - 14.0 °F 11% 30.05 in 10.0 mi NNE 5.8 mph - N/A   Overcast
7:56 PM 61.0 °F - 14.0 °F 16% 30.05 in 10.0 mi ENE 8.1 mph - N/A   Scattered Clouds
8:56 PM 57.0 °F - 14.0 °F 18% 30.06 in 10.0 mi ENE 5.8 mph - N/A   Partly Cloudy
9:56 PM 53.1 °F - 15.1 °F 22% 30.08 in 10.0 mi West 3.5 mph - N/A   Partly Cloudy
10:56 PM 50.0 °F - 18.0 °F 28% 30.09 in 10.0 mi SSE 8.1 mph - N/A   Clear
11:56 PM 46.9 °F - 19.0 °F 33% 30.09 in 10.0 mi South 9.2 mph - N/A   Clear